FMN 1 (43192 NORAD) Tracking and Keplerian Element Data

This shows tracking and keplerian element data for the satellite.

Feedback or suggestion? Click here.




ElementValue
Catalog43192
NameFMN 1
Epoch Orbit4822
Epoch Day350.21167684
Epoch Year2018
RAAN115.7044
Inclination97.3778
Eccentricity0.0015488
Argument of Perigee219.5089
Mean Anonmoly140.502
Mean Motion15.23518501
Decay Rate2.122E-05
L11 43192U 18015A 18350.21167684 .00002122 00000-0 91611-4 0 9995
L22 43192 97.3778 115.7044 0015488 219.5089 140.5020 15.23518501 48223

Live tracking and technical data element details for FMN 1 (NORAD 43192). FMN 1 can be tracked NOW for your location showing map with azimuth and elevation plus other details from your city location.

Track the satellite on the map from your city or location and see movement details for azimuth, elevation, latitude, longitude, range, height, and movement on the map or in text.







IsCatalogInMostPopularTable: catalog: 43192, numindb: 205
Update: records affected: 1



GetName: 43192 FMN 1

Hit Count: updated at: Tue, 18 Dec 2018 21:14:32 GMT